Moses Lake, WA

4:00 PM PDT on April 23, 2017 (GMT -0700)
Grant County International

Weather History for KMWH - January, 2014

Change the Weather History Date:

Wednesday, January 29, 2014

  Actual Average Record
Temperature  
Mean Temperature 30 °F 32 °F  
Max Temperature 32 °F 39 °F 54 °F (1984)
Min Temperature 27 °F 25 °F -2 °F (1980)
Degree Days  
Heating Degree Days 35 33  
Month to date heating degree days 925 1021  
Since 1 July heating degree days 3609 3608  
Cooling Degree Days 0 0  
Month to date cooling degree days 0 0  
Year to date cooling degree days 0 0  
Moisture  
Dew Point 30 °F    
Average Humidity 96    
Maximum Humidity 100    
Minimum Humidity 92    
Precipitation  
Precipitation 0.28 in 0.02 in 0.35 in (1986)
Month to date precipitation 0.40 1.10  
Year to date precipitation 0.40 1.10  
Sea Level Pressure  
Sea Level Pressure 29.85 in    
Wind  
Wind Speed 6 mph (NW)    
Max Wind Speed 12 mph    
Max Gust Speed 14 mph    
Visibility 6 miles    
Events Rain , Snow    
T = Trace of Precipitation, MM = Missing Value Source: NWS Daily Summary

Daily Weather History Graph

Daily Weather History Graph

Search for Another Location

Airport or City:

Trip Planner

Search our weather history database for the weather conditions in past years. The results will help you decide how hot, cold, wet, or windy it might be!

Date:

Astronomy

Jan. 29, 2014 Rise Set
Actual Time 7:26 AM PST 4:55 PM PST
Civil Twilight 6:53 AM PST 5:28 PM PST
Nautical Twilight 6:16 AM PST 6:05 PM PST
Astronomical Twilight 5:40 AM PST 6:41 PM PST
Moon 6:07 AM PST (1/29) 4:01 PM PST (1/29)
Length of Visible Light 10h 34m
Length of Day
9h 28m
Waning Crescent, 2% of the Moon is Illuminated
Jan 29
Waning Crescent
Jan 30
New
Feb 6
First Quarter
Feb 14
Full
Feb 22
Last Quarter

Hourly Weather History & Observations

Time (PST) Temp. Windchill Dew Point Humidity Pressure Visibility Wind Dir Wind Speed Gust Speed Precip Events Conditions
12:11 AM 32.0 °F 25.6 °F 30.2 °F 93% 30.08 in 4.0 mi North 6.9 mph - 0.02 in Rain Light Freezing Rain
12:52 AM 32.0 °F 26.4 °F 30.9 °F 96% 30.08 in 4.0 mi North 5.8 mph - 0.06 in Rain Light Freezing Rain
1:09 AM 32.0 °F 26.4 °F 30.2 °F 93% 30.02 in 3.0 mi North 5.8 mph - 0.01 in Snow Light Snow
1:22 AM 32.0 °F 27.5 °F 30.2 °F 93% 30.02 in 2.5 mi North 4.6 mph - 0.03 in Snow Light Snow
1:29 AM 32.0 °F 27.5 °F 30.2 °F 93% 30.02 in 2.5 mi NNW 4.6 mph - 0.04 in Snow Light Snow
1:41 AM 32.0 °F 27.5 °F 30.2 °F 93% 30.02 in 1.2 mi NNW 4.6 mph - 0.05 in Snow Light Snow
1:52 AM 32.0 °F 27.5 °F 30.9 °F 96% 30.04 in 0.8 mi NNW 4.6 mph - 0.07 in Snow Light Snow
2:22 AM 30.2 °F 23.4 °F 30.2 °F 100% 30.00 in 0.8 mi NNW 6.9 mph - 0.05 in Snow Light Snow
2:52 AM 30.9 °F 24.3 °F 30.0 °F 96% 30.01 in 0.8 mi NNW 6.9 mph - 0.09 in Snow Light Snow
2:59 AM 30.2 °F 23.4 °F 30.2 °F 100% 29.97 in 1.0 mi NNW 6.9 mph - 0.01 in Snow Light Snow
3:52 AM 30.9 °F 23.5 °F 30.0 °F 96% 29.97 in 1.5 mi NNW 8.1 mph - 0.04 in Snow Light Snow
4:41 AM 30.2 °F 23.4 °F 30.2 °F 100% 29.90 in 3.0 mi NNW 6.9 mph - 0.02 in Snow Light Snow
4:49 AM 30.2 °F 24.3 °F 30.2 °F 100% 29.90 in 5.0 mi NNW 5.8 mph - 0.02 in   Overcast
4:52 AM 30.9 °F 25.2 °F 30.0 °F 96% 29.94 in 5.0 mi NNW 5.8 mph - 0.02 in   Overcast
5:48 AM 30.2 °F 22.6 °F 30.2 °F 100% 29.89 in 7.0 mi NW 8.1 mph - 0.01 in   Overcast
5:52 AM 30.9 °F 24.3 °F 30.0 °F 96% 29.92 in 6.0 mi NW 6.9 mph - 0.01 in   Overcast
6:52 AM 30.9 °F 25.2 °F 28.9 °F 92% 29.90 in 10.0 mi WNW 5.8 mph - 0.00 in   Overcast
7:52 AM 30.0 °F 23.2 °F 28.9 °F 96% 29.88 in 10.0 mi SW 6.9 mph - N/A   Overcast
8:52 AM 30.0 °F 25.2 °F 28.9 °F 96% 29.88 in 9.0 mi SSW 4.6 mph - N/A   Overcast
9:26 AM 30.2 °F 26.7 °F 28.4 °F 93% 29.82 in 8.0 mi South 3.5 mph - N/A   Overcast
9:52 AM 30.9 °F 25.2 °F 28.9 °F 92% 29.84 in 9.0 mi SSE 5.8 mph - N/A   Overcast
10:02 AM 30.2 °F 26.7 °F 28.4 °F 93% 29.80 in 8.0 mi SSE 3.5 mph - N/A   Overcast
10:52 AM 32.0 °F 24.2 °F 30.0 °F 92% 29.82 in 7.0 mi SSE 9.2 mph - N/A   Overcast
11:52 AM 32.0 °F 24.8 °F 30.0 °F 92% 29.79 in 9.0 mi SSE 8.1 mph - N/A   Overcast
12:52 PM 32.0 °F 27.5 °F 30.0 °F 92% 29.76 in 9.0 mi SSE 4.6 mph - N/A   Overcast
1:52 PM 32.0 °F - 30.0 °F 92% 29.74 in 8.0 mi Calm Calm - N/A   Overcast
2:52 PM 32.0 °F 26.4 °F 30.0 °F 92% 29.72 in 8.0 mi East 5.8 mph - N/A   Overcast
3:52 PM 32.0 °F 27.5 °F 30.0 °F 92% 29.72 in 7.0 mi ESE 4.6 mph - 0.00 in   Overcast
4:43 PM 32.0 °F 27.5 °F 30.2 °F 93% 29.68 in 2.0 mi North 4.6 mph - 0.00 in Snow Light Snow
4:52 PM 32.0 °F 26.4 °F 30.0 °F 92% 29.72 in 4.0 mi North 5.8 mph - 0.00 in   Overcast
5:16 PM 32.0 °F 25.6 °F 30.2 °F 93% 29.68 in 8.0 mi NNW 6.9 mph - N/A   Overcast
5:41 PM 32.0 °F 25.6 °F 30.2 °F 93% 29.69 in 9.0 mi NW 6.9 mph - N/A   Overcast
5:52 PM 30.9 °F 22.2 °F 30.0 °F 96% 29.73 in 9.0 mi NNW 10.4 mph - N/A   Overcast
6:52 PM 30.9 °F 22.8 °F 28.9 °F 92% 29.74 in 9.0 mi NNW 9.2 mph - N/A   Overcast
7:39 PM 30.2 °F 25.4 °F 30.2 °F 100% 29.70 in 10.0 mi NNW 4.6 mph - N/A   Overcast
7:52 PM 30.9 °F 25.2 °F 30.0 °F 96% 29.75 in 10.0 mi NNW 5.8 mph - N/A   Overcast
8:52 PM 30.9 °F 25.2 °F 28.9 °F 92% 29.77 in 6.0 mi NW 5.8 mph - 0.00 in Snow Light Snow
9:13 PM 30.2 °F 24.3 °F 28.4 °F 93% 29.73 in 9.0 mi WNW 5.8 mph - 0.00 in   Mostly Cloudy
9:28 PM 26.6 °F 20.0 °F 26.6 °F 100% 29.73 in 9.0 mi West 5.8 mph - 0.00 in   Scattered Clouds
9:52 PM 30.0 °F 23.2 °F 28.0 °F 92% 29.78 in 10.0 mi WSW 6.9 mph - 0.00 in   Mostly Cloudy
10:52 PM 28.9 °F 21.9 °F 28.0 °F 96% 29.79 in 9.0 mi WSW 6.9 mph - N/A   Mostly Cloudy
11:52 PM 28.9 °F 23.9 °F 27.0 °F 92% 29.80 in 10.0 mi SW 4.6 mph - N/A   Overcast